Tracking 35275 objects as of 8-Sep-2026
HD Live streaming from Space Station
objects crossing your sky now

NOAA 17 DEB


NOAA 17 DEB is no longer on orbit


NORAD ID: 49484
Int'l Code: 2002-032DN
Launch date: June 24, 2002
Source: United States (US)
Launch site: AIR FORCE WESTERN TEST RANGE (AFWTR)
Decay date: 2025-05-06

Note: This is SATELLITE DEBRIS
Your satellite tracking list
Your tracking list is empty




NASA's NSSDC Master Catalog

Two Line Element Set (TLE):
1 49484U 02032DN  25098.40641204  .00817052  00000-0  30552-1 0  9990
2 49484  98.6543  86.3631 0023891 121.3823 238.9752 15.24481952199383
Source of the keplerian elements: AFSPC